Showing default

GALILEO 15 (267), 41859

Orbit data source: Space-Track

GALILEO 15 (267), 41859 is a payload satellite owned by GNSS Agency (ESA) that was launched on Thu, 17 Nov 2016 UTC via an ARIANE 5ES launch vehicle from the French Guiana (FRGUI). Payload-class satellites include a variety of spacecraft equipped with specific instruments for various scientific and technological missions. These include communications satellites like Starlink; space stations such as the ISS; scientific satellites like the Hubble; Earth observation satellites from companies like Planet Labs, Umbra, and HawkEye 360; GPS; miniature CubeSats for education and research; and military/defense satellites.

Loading next visibility...
Identifier
41859, 2016-069A
Orbit
Active
Country
Flag of ESAESA
Related business
Manufacturer
OHB
Mission
Operational Civil Navigation
Bus & Motor
GALILEOSAT, AOCS
Mass
738 kg wet, 700 kg dry
Launch date (UTC)
2016-11-17 (9 years ago)
Launch vehicle
ARIANE 5ES
Launch site
French Guiana (FRGUI)
Object type
Payload
Rocket body
Debris
Shape & HBR
Box + 2 Pan, 7.3 m
Radar Cross Section
9.223 m², Large (>1 m²)

Expand to show TLE details & history
Last TLE update: 20 hours ago

TLE from 20 hours ago
0 GALILEO 15 (267)
1 41859U 16069A   26126.68442161  .00000038  00000-0  00000-0 0  9999
2 41859  55.4733 102.2336 0005891 319.6391  40.2855  1.70474045 58692
Epoch: 2026-05-06T16:25Z
TLE epoch observation values (Epoch: 2026-05-06T16:25:34.027Z)
Latitude
-0.00003°
Longitude
-8.72025°
Altitude
23,209.146 km
Speed
3.671 km/s
True Right ascension
06h 48m 51s
True Declination
0° 00' 00"
Sunlit
Object was in daylight at epoch
Visualization orbit readout
Latitude
Unknown
Longitude
Unknown
Altitude
Unknown
Speed
Unknown
Apparent Right ascension
Unknown
Apparent Declination
Unknown
Sunlit
N/A
Visualization observer readout
Local Sidereal Time
20:00:40
Azimuth
Unknown
Elevation
Unknown
Doppler factor
Unknown
Orbital elements
Apogee altitude
23,239.607 km
Perigee altitude
23,204.731 km
Semi-major axis
29,600.306 km
Eccentricity
0.00059
Inclination
55.4733°
RAAN
102.2336°
Arg. of periapsis
319.6391°
True anomaly
40.32917°
Mean anomaly
40.2855°
Eccentric anomaly
40.30733°
Mean motion
0.42619 °/min
Orbital period
844.7 mins
BSTAR
0
Loading maneuver chart data...
Computing Atmospheric mass density...
Loading historical data...
Loading historical data...
Loading historical data...
Loading historical data...
Loading historical data...
Loading historical data...
Loading historical data...
Other satellites on launch #69 in the year 2016 (2016-11-17 UTC)

Documentation

Showing up to 5 results
|